TimeCDT,TemperatureF,Dew PointF,Humidity,Sea Level PressureIn,VisibilityMPH,Wind Direction,Wind SpeedMPH,Gust SpeedMPH,PrecipitationIn,Events,Conditions,WindDirDegrees,DateUTC
12:53 AM,28.9,23.0,78,30.27,10.0,WNW,5.8,-,N/A,,Clear,290,2013-05-05 05:53:00
1:53 AM,26.1,21.0,81,30.27,10.0,WNW,4.6,-,N/A,,Clear,290,2013-05-05 06:53:00
2:53 AM,26.1,21.0,81,30.25,10.0,NW,5.8,-,N/A,,Clear,310,2013-05-05 07:53:00
3:53 AM,25.0,19.9,81,30.25,10.0,WNW,6.9,-,N/A,,Clear,290,2013-05-05 08:53:00
4:53 AM,24.1,19.9,84,30.25,10.0,WNW,9.2,-,N/A,,Clear,290,2013-05-05 09:53:00
5:53 AM,24.1,19.9,84,30.25,10.0,West,4.6,-,N/A,,Clear,280,2013-05-05 10:53:00
6:53 AM,26.1,19.9,78,30.25,10.0,Calm,Calm,-,N/A,,Clear,0,2013-05-05 11:53:00
7:53 AM,30.0,25.0,82,30.27,10.0,WSW,5.8,-,N/A,,Clear,240,2013-05-05 12:53:00
8:53 AM,39.2,26.6,61,30.25,10.0,West,3.5,-,N/A,,Clear,280,2013-05-05 13:53:00
9:53 AM,46.0,26.1,46,30.28,10.0,West,5.8,-,N/A,,Clear,280,2013-05-05 14:53:00
10:53 AM,52.0,23.0,32,30.28,10.0,NNW,12.7,17.3,N/A,,Clear,330,2013-05-05 15:53:00
11:53 AM,55.9,21.9,27,30.25,10.0,North,11.5,17.3,N/A,,Clear,350,2013-05-05 16:53:00
12:53 PM,57.2,19.4,23,30.20,10.0,North,12.7,19.6,N/A,,Clear,350,2013-05-05 17:53:00
1:53 PM,60.1,19.9,21,30.21,10.0,NNE,11.5,-,N/A,,Clear,20,2013-05-05 18:53:00
2:53 PM,62.1,19.9,20,30.19,10.0,Variable,4.6,-,N/A,,Clear,0,2013-05-05 19:53:00
3:53 PM,62.1,16.0,17,30.17,10.0,Calm,Calm,-,N/A,,Clear,0,2013-05-05 20:53:00
4:53 PM,64.0,19.0,18,30.15,10.0,ENE,6.9,-,N/A,,Clear,60,2013-05-05 21:53:00
5:53 PM,64.9,19.9,18,30.14,10.0,NE,8.1,-,N/A,,Clear,40,2013-05-05 22:53:00
6:53 PM,64.0,19.0,18,30.13,10.0,Variable,4.6,-,N/A,,Clear,0,2013-05-05 23:53:00
7:53 PM,60.1,21.9,23,30.13,10.0,ENE,4.6,-,N/A,,Clear,60,2013-05-06 00:53:00
8:53 PM,50.0,27.0,41,30.14,10.0,Calm,Calm,-,N/A,,Clear,0,2013-05-06 01:53:00
9:53 PM,45.0,26.1,48,30.15,10.0,ESE,4.6,-,N/A,,Clear,110,2013-05-06 02:53:00
10:53 PM,41.0,26.1,55,30.16,10.0,East,3.5,-,N/A,,Clear,80,2013-05-06 03:53:00
11:53 PM,39.9,27.0,60,30.14,10.0,Calm,Calm,-,N/A,,Clear,0,2013-05-06 04:53:00